Regional Weather Roundup
Issued by NWS

Home | Current Version | Previous Version | Graphics & Text | Print | Product List | Glossary On
Versions: 1 2 3 4 5 6 7 8 9 10 11 12 13 14 15 16 17 18 19 20 21 22 23 24 25 26 27 28 29 30 31 32 33 34 35 36 37 38 39 40 41 42 43 44 45 46 47 48 49 50
000
ASUS43 KBIS 222210
RWRND

NORTH DAKOTA REGIONAL WEATHER ROUNDUP
NATIONAL WEATHER SERVICE BISMARCK ND
500 PM CDT THU JUN 22 2017

NOTE: "FAIR" INDICATES FEW OR NO CLOUDS BELOW 12,000 FEET WITH NO
SIGNIFICANT WEATHER AND/OR OBSTRUCTIONS TO VISIBILITY.


NDZ001>003-009>011-017-222300-
NORTHWEST NORTH DAKOTA

CITY           SKY/WX    TMP DP  RH WIND       PRES   REMARKS
WILLISTON      CLOUDY    70  36  28 NW35G46   29.85R
MINOT          MOSUNNY   70  35  27 W25G45    29.75S
MINOT AFB      CLOUDY    65  42  42 NW24G32   29.73R
$$

NDZ018>021-031>035-040>046-222300-
SOUTHWEST NORTH DAKOTA

CITY           SKY/WX    TMP DP  RH WIND       PRES   REMARKS
BISMARCK       MOSUNNY   77  33  20 W21G35    29.80F
DICKINSON      MOSUNNY   69  26  20 W25G38    29.86F
GARRISON         N/A     71  33  24 NW25G44   29.78F
HETTINGER ARPT MOSUNNY   74  28  18 W24G33    29.90S
$$

NDZ004>008-012>016-024-026-027-054-222300-
NORTHEAST NORTH DAKOTA

CITY           SKY/WX    TMP DP  RH WIND       PRES   REMARKS
GRAND FORKS    PTSUNNY   74  39  28 W17G29    29.68S
GRND FRKS AFB  MOSUNNY   72  37  27 NW17G26   29.69S
DEVILS LAKE    PTSUNNY   71  37  28 W32G40    29.70S
$$

NDZ022-023-025-028>030-036>039-047>053-222300-
SOUTHEAST NORTH DAKOTA

CITY           SKY/WX    TMP DP  RH WIND       PRES   REMARKS
FARGO          MOSUNNY   78  40  25 W23G29    29.71S
JAMESTOWN      PTSUNNY   75  36  24 W24G30    29.77R
$$





USA.gov is the U.S. government's official web portal to all federal, state and local government web resources and services.